Location: Devore Heights
(34.2372°N, 117.4156°W)
Time: 22:19:10
(UTC+00:00)

Transit 4A - Pass Details

Date: 19 September 2024
Orbit: 864 x 978 km, 66.8° (Epoch: 13 October)

Event Time Altitude Azimuth Distance (km) Brightness Sun altitude
Rises 08:39:18 0° 185° (S) 3,430 - -52.2°
Reaches altitude 10° 08:41:52 10° 178° (S) 2,502 - -52.0°
Maximum altitude 08:47:14 41° 109° (ESE) 1,257 - -51.5°
Drops below altitude 10° 08:52:42 10° 42° (NE) 2,563 - -51.0°
Exits shadow 08:53:26 - 39° (NE) 2,823 10.9 -50.9°
Sets 08:55:22 0° 35° (NE) 3,523 11.6 -50.7°
